IW4EGP-3 Weather Reports


Display with metric or nautical units.
time (UTC)temp
F
wind
direction
speed
MPH
gust
MPH
rain 1hr
in
rain 24hr
in
rain mn
in
humidity
%
barometer
mb
20200812060136 81 289 1.0 4.0 0.00 0.00 0.00 76 1010.9
20200812054639 80 302 3.0 8.0 0.00 0.00 0.00 77 1010.8
20200812053136 80 289 1.0 4.0 0.00 0.00 0.00 75 1010.8
20200812051638 78 298 2.0 4.0 0.00 0.00 0.00 78 1010.5
20200812050146 78 290 2.0 5.0 0.00 0.00 0.00 80 1010.3
20200812044636 77 295 2.0 5.0 0.00 0.00 0.00 83 1010.3
20200812043138 75 297 2.0 6.0 0.00 0.00 0.00 86 1010.2
20200812041636 75 302 3.0 7.0 0.00 0.00 0.00 87 1010.2
20200812040137 75 307 4.0 9.0 0.00 0.00 0.00 87 1010.2
20200812034636 75 318 5.0 9.0 0.00 0.00 0.00 87 1010.0
20200812033135 75 308 5.0 9.0 0.00 0.00 0.00 87 1010.0
20200812031729 76 308 4.0 6.0 0.00 0.00 0.00 86 1010.2
20200812031636 76 308 4.0 6.0 0.00 0.00 0.00 86 1010.2
20200812030213 76 306 3.0 6.0 0.00 0.00 0.00 87 1010.2
20200812030137 76 306 3.0 6.0 0.00 0.00 0.00 87 1010.2
20200812024637 76 310 4.0 8.0 0.00 0.00 0.00 86 1010.2
20200812023140 76 307 4.0 7.0 0.00 0.00 0.00 87 1010.1
20200812021702 76 298 5.0 9.0 0.00 0.00 0.00 88 1010.1
20200812021640 76 298 5.0 9.0 0.00 0.00 0.00 88 1010.1
20200812020136 76 307 5.0 8.0 0.00 0.00 0.00 88 1010.2
20200812014656 77 314 4.0 8.0 0.00 0.00 0.00 87 1010.2
20200812013144 77 303 5.0 8.0 0.00 0.00 0.00 86 1010.2
20200812011709 77 317 4.0 6.0 0.00 0.00 0.00 86 1010.2
20200812011637 77 317 4.0 6.0 0.00 0.00 0.00 86 1010.2
20200812010139 77 310 4.0 6.0 0.00 0.00 0.00 83 1010.1
20200812004637 78 306 4.0 8.0 0.00 0.00 0.00 83 1010.2
20200812003226 78 308 3.0 6.0 0.00 0.00 0.00 83 1010.3
20200812003141 78 308 3.0 6.0 0.00 0.00 0.00 83 1010.3
20200812001656 77 314 3.0 7.0 0.00 0.00 0.00 84 1010.3
20200812000210 77 298 0.0 4.0 0.00 0.00 0.00 84 1010.1
20200812000140 77 298 0.0 4.0 0.00 0.00 0.00 84 1010.1
20200811234733 78 294 2.0 5.0 0.00 0.00 0.00 83 1010.2
20200811234656 78 294 2.0 5.0 0.00 0.00 0.00 83 1010.2
20200811233216 78 310 1.0 3.0 0.00 0.00 0.00 80 1010.3
20200811233137 78 310 1.0 3.0 0.00 0.00 0.00 80 1010.3
20200811231640 78 307 1.0 4.0 0.00 0.00 0.00 81 1010.3
20200811230145 79 317 2.0 4.0 0.00 0.00 0.00 79 1010.4
20200811224637 80 321 2.0 3.0 0.00 0.00 0.00 74 1010.3
20200811223144 80 0 0.0 1.0 0.00 0.00 0.00 73 1010.1
20200811221638 80 0 0.0 0.0 0.00 0.00 0.00 71 1010.1
20200811220139 80 278 0.0 2.0 0.00 0.00 0.00 68 1010.0
20200811203135 81 0 0.0 0.0 0.00 0.00 0.00 67 1009.9
20200811201639 82 0 0.0 0.0 0.00 0.00 0.00 67 1009.8
20200811200337 82 184 0.0 3.0 0.00 0.00 0.00 66 1009.9
20200811200143 82 184 0.0 3.0 0.00 0.00 0.00 66 1009.9
20200811194656 83 175 0.0 3.0 0.00 0.00 0.00 66 1009.8
20200811193138 83 171 2.0 6.0 0.00 0.00 0.00 67 1010.1
20200811191639 83 163 2.0 6.0 0.00 0.00 0.00 68 1009.7
20200811190142 83 161 3.0 6.0 0.00 0.00 0.00 69 1009.7
20200811184641 83 148 3.0 6.0 0.00 0.00 0.00 67 1009.6
20200811183139 83 167 2.0 6.0 0.00 0.00 0.00 69 1009.4
20200811181642 83 140 2.0 5.0 0.00 0.00 0.00 68 1009.3
20200811180146 83 165 3.0 9.0 0.00 0.00 0.00 66 1009.2
20200811175357 83 160 5.0 10.0 0.00 0.00 0.00 66 1009.2
20200811174722 83 160 5.0 10.0 0.00 0.00 0.00 66 1009.2
20200811174646 83 160 5.0 10.0 0.00 0.00 0.00 66 1009.2
20200811173138 83 140 5.0 11.0 0.00 0.00 0.00 69 1009.2
20200811171815 83 150 6.0 13.0 0.00 0.00 0.00 70 1009.3
20200811171639 83 150 6.0 13.0 0.00 0.00 0.00 70 1009.3
20200811170317 84 148 7.0 12.0 0.00 0.00 0.00 74 1009.4
20200811170138 84 148 7.0 12.0 0.00 0.00 0.00 74 1009.4
20200811164826 85 158 6.0 12.0 0.00 0.00 0.00 74 1009.1
20200811164643 85 158 6.0 12.0 0.00 0.00 0.00 74 1009.1
20200811163443 85 148 7.0 13.0 0.00 0.00 0.00 76 1009.2
20200811163145 85 148 7.0 13.0 0.00 0.00 0.00 76 1009.2
20200811161746 86 161 4.0 13.0 0.00 0.00 0.00 63 1009.1
20200811161638 86 161 4.0 13.0 0.00 0.00 0.00 63 1009.1
20200811160138 86 152 5.0 11.0 0.00 0.00 0.00 62 1009.1
20200811154814 87 155 6.0 10.0 0.00 0.00 0.00 60 1009.0
20200811154636 87 155 6.0 10.0 0.00 0.00 0.00 60 1009.0
20200811153452 88 146 6.0 12.0 0.00 0.00 0.00 61 1009.0
20200811153140 88 146 6.0 12.0 0.00 0.00 0.00 61 1009.0
20200811152752 89 153 6.0 12.0 0.00 0.00 0.00 61 1008.8
20200811151637 89 153 6.0 12.0 0.00 0.00 0.00 61 1008.8
20200811150657 89 153 5.0 11.0 0.00 0.00 0.00 59 1009.0
20200811150142 89 153 5.0 11.0 0.00 0.00 0.00 59 1009.0
20200811144637 89 162 6.0 12.0 0.00 0.00 0.00 56 1008.9
20200811144537 89 143 6.0 11.0 0.00 0.00 0.00 58 1009.0
20200811143520 89 143 6.0 11.0 0.00 0.00 0.00 58 1009.0
20200811143137 89 143 6.0 11.0 0.00 0.00 0.00 58 1009.0
20200811141639 90 158 5.0 9.0 0.00 0.00 0.00 57 1009.3
20200811140139 90 148 4.0 9.0 0.00 0.00 0.00 55 1009.4
20200811134637 90 149 5.0 11.0 0.00 0.00 0.00 55 1009.5
20200811133137 90 155 4.0 9.0 0.00 0.00 0.00 57 1009.8
20200811132006 90 162 5.0 9.0 0.00 0.00 0.00 52 1010.0
20200811131636 90 162 5.0 9.0 0.00 0.00 0.00 52 1010.0
20200811130139 91 127 5.0 10.0 0.00 0.00 0.00 52 1010.0
20200811124638 92 148 4.0 12.0 0.00 0.00 0.00 51 1010.0
20200811123142 92 131 4.0 9.0 0.00 0.00 0.00 49 1010.1
20200811121639 92 127 4.0 10.0 0.00 0.00 0.00 51 1010.0
20200811120138 92 124 3.0 9.0 0.00 0.00 0.00 52 1010.1
20200811114642 91 119 5.0 10.0 0.00 0.00 0.00 56 1010.4
20200811113143 92 116 3.0 10.0 0.00 0.00 0.00 57 1010.4
20200811111636 91 135 4.0 10.0 0.00 0.00 0.00 56 1010.4
20200811110140 92 129 4.0 10.0 0.00 0.00 0.00 57 1010.6
20200811104637 93 91 3.0 10.0 0.00 0.00 0.00 56 1010.8
20200811103137 93 109 3.0 11.0 0.00 0.00 0.00 56 1010.7
20200811101636 93 131 3.0 9.0 0.00 0.00 0.00 54 1010.6
20200811100140 94 101 2.0 8.0 0.00 0.00 0.00 54 1010.5
20200811094635 94 86 2.0 8.0 0.00 0.00 0.00 53 1010.6
20200811093138 95 125 2.0 5.0 0.00 0.00 0.00 46 1010.6
20200811091709 96 140 0.0 3.0 0.00 0.00 0.00 45 1010.8
20200811091637 96 140 0.0 3.0 0.00 0.00 0.00 45 1010.8
20200811090144 95 50 1.0 3.0 0.00 0.00 0.00 48 1010.7
20200811084636 94 323 0.0 3.0 0.00 0.00 0.00 50 1010.8
20200811083138 93 293 0.0 3.0 0.00 0.00 0.00 52 1010.8
20200811081636 92 297 0.0 3.0 0.00 0.00 0.00 54 1010.6
20200811080139 90 346 1.0 6.0 0.00 0.00 0.00 58 1010.8
20200811074650 92 354 1.0 6.0 0.00 0.00 0.00 55 1010.8
20200811073139 90 321 1.0 5.0 0.00 0.00 0.00 57 1010.7
20200811071712 89 306 0.0 4.0 0.00 0.00 0.00 58 1010.6
20200811071638 89 306 0.0 4.0 0.00 0.00 0.00 58 1010.6
20200811070141 88 316 1.0 5.0 0.00 0.00 0.00 60 1010.5
20200811064638 86 300 2.0 6.0 0.00 0.00 0.00 60 1010.5
20200811063212 86 293 1.0 4.0 0.00 0.00 0.00 57 1010.5
20200811063141 86 293 1.0 4.0 0.00 0.00 0.00 57 1010.5
20200811061712 85 285 1.0 5.0 0.00 0.00 0.00 61 1010.3
20200811061636 85 285 1.0 5.0 0.00 0.00 0.00 61 1010.3